sat.trackr.live / text

‹ back to catalog

STARLINK-32078

NORAD 60338 · 2024-136K

PAYLOAD ACTIVE UNKNOWN

§ Identity

Operator
Country
US
Launch date
2024-08-02
Launch site
AFETR
Launch vehicle
Mass (kg)
RCS (m²)

Purposes: comms

External: N2YO · Heavens-Above · Gunter

§ Orbital elements

Epoch: 2026-05-25T02:33:57.085344Z

Period
94.11 min
Inclination
53.1609°
Eccentricity
0.0001306
Mean motion
15.30195083 rev/d
Perigee alt
474.3 km
Apogee alt
476.1 km
Semi-major
6,853.4 km
B*
1.3797e-5
RAAN
80.7683°
Arg perigee
94.4374°
Mean anomaly
265.6776°
Rev number
10,136

§ Raw data

STARLINK-320781 60338U 24136K   26145.10691071  .00000049  00000+0  13797-4 0  99922 60338  53.1609  80.7683 0001306  94.4374 265.6776 15.30195083101364

JSON: /api/v1/satellites/60338 · /tle

For live sub-satellite position, see the globe view (requires WebGL).

§ Visibility from observer

Set your observer location to see the next 7 days of passes ≥ 10°. The values pass through the URL so the page stays shareable.

No JS? Fill the form by hand. The geolocation button needs JavaScript.